Miscellaneous Local Product
Issued by NWS North Platte, NE

Home | Current Version | Previous Version | Text Only | Print | Product List | Glossary On
Versions: 1 2 3 4 5 6 7 8 9 10 11 12 13 14 15 16 17 18 19 20 21 22 23 24 25 26 27 28 29 30 31 32 33 34 35 36 37 38 39 40 41 42 43 44 45 46 47 48 49 50
000
AXUS43 KLBF 010210
MISLBF


WESTERN AND NORTH CENTRAL NEBRASKA HOURLY WEATHER ROUNDUP
NATIONAL WEATHER SERVICE NORTH PLATTE NE
900 PM CDT THU JUL 31 2014

***STATIONS NOT REPORTING VARIABLES SUCH AS SKY/WEATHER OR
PRESSURE ARE PROVIDED BY THE NEBRASKA DEPARTMENT OF
ROADS...RAWS...AND APRS NETWORKS...AND ARE NOT UNDER
NATIONAL WEATHER SERVICE QUALITY CONTROL***

...OBSERVATIONS IN AND NEAR THE EASTERN PANHANDLE OF NEBRASKA...

CITY           SKY/WX    TMP DP  RH WIND       PRES   REMARKS
PINE RIDGE     PTCLDY    73  57  57 CALM      30.12S
CHADRON        PTCLDY    80  49  33 NE7       30.11S
ALLIANCE       CLEAR     75  45  34 NE8       30.15R
SIDNEY         CLEAR     74  38  27 NE7       30.18R
WHITECLAY        N/A     74  51  43 CALM        N/A
RUSHVILLE        N/A     79  40  24 E10         N/A
GORDON           N/A     82  51  33 NW5         N/A
CRESCENT LAKE    N/A     76  44  31 N6          N/A
LISCO            N/A     83  39  20 N8          N/A
BIG SPRINGS      N/A     82  51  34 CALM        N/A
$$

...OBSERVATIONS IN NORTH CENTRAL NEBRASKA...

CITY           SKY/WX    TMP DP  RH WIND       PRES   REMARKS
VALENTINE      CLEAR     80  52  37 NE5       30.06S
THEDFORD       CLEAR     77  52  41 CALM      30.09S
AINSWORTH      CLEAR     72  59  62 E6        30.07R
O`NEILL        CLEAR     73  65  75 E9        30.06S
ORD            CLEAR     73  61  65 NE6       30.04R
BROKEN BOW     CLEAR     73  58  59 NE7       30.06R
BROWNLEE         N/A     80  48  31 CALM        N/A
SPRINGVIEW       N/A     77  56  48 E3          N/A
DUNNING          N/A     77  54  45 E3          N/A
ROSE             N/A     77  68  73 E7          N/A
NEWPORT          N/A     71  64  77 E7          N/A
SARGENT          N/A     75  62  63 CALM        N/A
COMSTOCK         N/A     78  67  69 E3          N/A
CHAMBERS         N/A     72  63  72 E7          N/A
EWING            N/A     69  63  81 CALM        N/A
$$

...OBSERVATIONS IN SOUTHWEST NEBRASKA AND FAR NORTHEAST COLORADO...

CITY           SKY/WX    TMP DP  RH WIND       PRES   REMARKS
WRAY             N/A     77  54  44 SW5       30.13S
HOLYOKE        FAIR      75  61  60 NW3       30.13R
IMPERIAL       CLEAR     77  59  53 N3        30.10R
OGALLALA       CLEAR     74  49  40 NE6       30.10S
NORTH PLATTE   CLEAR     75  51  43 NE6       30.07R
MCCOOK         MOCLDY    79  55  43 N6        30.06R
LEXINGTON      CLEAR     74  56  53 NE7       30.05R
PAXTON           N/A     84  53  34 CALM        N/A
SUTHERLAND       N/A     81  53  36 E3          N/A
BRADY            N/A     78  52  40 CALM        N/A
GOTHENBURG       N/A     82  51  34 N6          N/A
CALLAWAY         N/A     79  58  48 NE6         N/A
$$

...SOME WEATHER OBSERVATIONS FROM AROUND THE REGION...

CITY           SKY/WX    TMP DP  RH WIND       PRES   REMARKS
DENVER         MOCLDY    71  47  42 SE3       30.25R
LARAMIE        PTCLDY    64  47  53 S9        30.33R
CHEYENNE       PTCLDY    67  49  52 SW9G28    30.28R
SCOTTSBLUFF    CLEAR     76  51  41 E7        30.15R
RAPID CITY     PTCLDY    76  57  51 CALM      30.10S
PIERRE         CLEAR     76  59  55 E3        30.01R
WINNER         FAIR      77  56  48 E8        30.03S
SIOUX FALLS    PTCLDY    67  60  78 CALM      30.04S
OMAHA          MOCLDY    75  58  55 E8        30.01R
GRAND ISLAND   CLEAR     77  60  55 N7        30.01R
KANSAS CITY    CLOUDY    76  56  49 E6        30.05R
WICHITA        PTCLDY    73  56  54 SE6       30.05R
HAYS           CLEAR     75  55  50 S10       30.05S
LIBERAL        PTCLDY    75  52  43 E3        30.15R
GOODLAND       CLEAR     77  45  32 CALM      30.14S
$$



USA.gov is the U.S. government's official web portal to all federal, state and local government web resources and services.